Tracking 29892 objects as of 21-Nov-2024
HD Live streaming from Space Station
objects crossing your sky now

STARLINK-4785

Track STARLINK-4785 now!
10-day predictions
STARLINK-4785 is classified as:


NORAD ID: 53865
Int'l Code: 2022-114AZ
Perigee: 455.5 km
Apogee: 457.2 km
Inclination: 53.2 °
Period: 93.6 minutes
Semi major axis: 6827 km
RCS: Unknown
Launch date: September 19, 2022
Source: United States (US)
Launch site: AIR FORCE EASTERN TEST RANGE (AFETR)
Your satellite tracking list
Your tracking list is empty




NASA's NSSDC Master Catalog

Two Line Element Set (TLE):
1 53865U 22114AZ  24326.25001157  .01259864  00000-0  29524-1 0  9993
2 53865  53.2116 247.8459 0001240  97.5780 195.0525 15.38945445121110
Source of the keplerian elements: AFSPC